Time,TemperatureF,DewpointF,PressureIn,WindDirection,WindDirectionDegrees,WindSpeedMPH,WindSpeedGustMPH,Humidity,HourlyPrecipIn,Conditions,Clouds,dailyrainin,SoftwareType,DateUTC
2013-02-20 00:00:00,34.2,19.7,29.83,WSW,238,3.0,3.0,55,0.00,,,0.04,Wunderground v.1.15,2013-02-20 05:00:00,
2013-02-20 00:01:00,34.1,20.0,29.83,West,261,3.0,4.0,56,0.00,,,0.04,Wunderground v.1.15,2013-02-20 05:01:00,
2013-02-20 00:02:00,34.2,19.7,29.84,NE,49,3.0,4.0,55,0.00,,,0.00,Wunderground v.1.15,2013-02-20 05:02:00,
2013-02-20 00:05:00,34.2,20.1,29.84,South,173,3.0,4.0,56,0.00,,,0.00,Wunderground v.1.15,2013-02-20 05:05:00,
2013-02-20 00:11:00,34.1,20.0,29.84,North,5,3.0,3.0,56,0.00,,,0.00,Wunderground v.1.15,2013-02-20 05:11:00,
2013-02-20 00:16:00,33.9,20.0,29.85,ENE,68,0.0,5.0,56,0.00,,,0.00,weatherlink.com 1.10,2013-02-20 05:16:00,
2013-02-20 00:22:00,33.8,19.7,29.85,SE,138,2.0,2.0,56,0.00,,,0.00,Wunderground v.1.15,2013-02-20 05:22:00,
2013-02-20 00:27:00,33.8,19.7,29.85,ESE,109,3.0,4.0,56,0.00,,,0.00,Wunderground v.1.15,2013-02-20 05:27:00,
2013-02-20 00:32:00,33.7,19.7,29.85,SW,223,2.0,2.0,56,0.00,,,0.00,Wunderground v.1.15,2013-02-20 05:32:00,
2013-02-20 00:39:00,33.7,19.2,29.86,SW,214,2.0,7.0,55,0.00,,,0.00,Wunderground v.1.15,2013-02-20 05:39:00,
2013-02-20 00:44:00,33.7,19.2,29.86,WNW,284,2.0,7.0,55,0.00,,,0.00,Wunderground v.1.15,2013-02-20 05:44:00,
2013-02-20 00:49:00,33.8,19.3,29.85,North,360,3.0,7.0,55,0.00,,,0.00,Wunderground v.1.15,2013-02-20 05:49:00,
2013-02-20 00:55:00,33.8,19.3,29.86,NE,51,3.0,3.0,55,0.00,,,0.00,Wunderground v.1.15,2013-02-20 05:55:00,
2013-02-20 01:00:00,33.8,19.3,29.86,North,355,2.0,2.0,55,0.00,,,0.00,Wunderground v.1.15,2013-02-20 06:00:00,
2013-02-20 01:06:00,33.7,19.7,29.86,WNW,296,3.0,5.0,56,0.00,,,0.00,Wunderground v.1.15,2013-02-20 06:06:00,
2013-02-20 01:11:00,33.6,19.6,29.86,SW,232,2.0,2.0,56,0.00,,,0.00,Wunderground v.1.15,2013-02-20 06:11:00,
2013-02-20 01:17:00,33.4,19.8,29.86,SW,219,2.0,4.0,57,0.00,,,0.00,Wunderground v.1.15,2013-02-20 06:17:00,
2013-02-20 01:24:00,33.3,19.3,29.86,NW,304,3.0,3.0,56,0.00,,,0.00,Wunderground v.1.15,2013-02-20 06:24:00,
2013-02-20 01:29:00,33.2,19.6,29.86,WNW,296,2.0,3.0,57,0.00,,,0.00,Wunderground v.1.15,2013-02-20 06:29:00,
2013-02-20 01:34:00,33.1,19.5,29.86,NW,311,1.0,2.0,57,0.00,,,0.00,Wunderground v.1.15,2013-02-20 06:34:00,
2013-02-20 01:39:00,32.9,18.9,29.86,NE,51,2.0,6.0,56,0.00,,,0.00,Wunderground v.1.15,2013-02-20 06:39:00,
2013-02-20 01:45:00,32.7,18.0,29.86,SE,136,2.0,6.0,56,0.00,,,0.00,weatherlink.com 1.10,2013-02-20 06:45:00,
2013-02-20 01:51:00,32.5,18.1,29.86,NE,50,2.0,2.0,55,0.00,,,0.00,Wunderground v.1.15,2013-02-20 06:51:00,
2013-02-20 01:56:00,32.3,17.9,29.86,WSW,243,2.0,4.0,55,0.00,,,0.00,Wunderground v.1.15,2013-02-20 06:56:00,
2013-02-20 02:02:00,32.2,18.2,29.87,NW,306,3.0,6.0,56,0.00,,,0.00,Wunderground v.1.15,2013-02-20 07:02:00,
2013-02-20 02:07:00,32.0,18.1,29.88,East,86,2.0,6.0,56,0.00,,,0.00,Wunderground v.1.15,2013-02-20 07:07:00,
2013-02-20 02:14:00,31.9,18.0,29.88,North,5,2.0,4.0,56,0.00,,,0.00,Wunderground v.1.15,2013-02-20 07:14:00,
2013-02-20 02:19:00,31.9,18.0,29.88,West,259,2.0,5.0,56,0.00,,,0.00,Wunderground v.1.15,2013-02-20 07:19:00,
2013-02-20 02:24:00,31.9,18.4,29.88,NNE,24,2.0,4.0,57,0.00,,,0.00,Wunderground v.1.15,2013-02-20 07:24:00,
2013-02-20 02:29:00,31.9,18.0,29.88,South,185,1.0,4.0,56,0.00,,,0.00,Wunderground v.1.15,2013-02-20 07:29:00,
2013-02-20 02:34:00,31.9,18.0,29.89,NE,42,1.0,7.0,56,0.00,,,0.00,Wunderground v.1.15,2013-02-20 07:34:00,
2013-02-20 02:39:00,31.9,18.0,29.89,NE,34,1.0,7.0,56,0.00,,,0.00,Wunderground v.1.15,2013-02-20 07:39:00,
2013-02-20 02:44:00,31.8,17.9,29.88,WNW,286,1.0,3.0,56,0.00,,,0.00,Wunderground v.1.15,2013-02-20 07:44:00,
2013-02-20 02:49:00,31.7,18.2,29.88,NE,43,2.0,3.0,57,0.00,,,0.00,Wunderground v.1.15,2013-02-20 07:49:00,
2013-02-20 02:54:00,31.6,17.7,29.87,WNW,300,3.0,3.0,56,0.00,,,0.00,Wunderground v.1.15,2013-02-20 07:54:00,
2013-02-20 03:00:00,31.5,17.6,29.88,NE,49,3.0,3.0,56,0.00,,,0.00,Wunderground v.1.15,2013-02-20 08:00:00,
2013-02-20 03:06:00,31.3,17.4,29.88,WSW,250,2.0,10.0,56,0.00,,,0.00,Wunderground v.1.15,2013-02-20 08:06:00,
2013-02-20 03:12:00,31.1,17.2,29.89,North,360,2.0,3.0,56,0.00,,,0.00,Wunderground v.1.15,2013-02-20 08:12:00,
2013-02-20 03:17:00,30.9,16.6,29.89,WSW,246,2.0,7.0,55,0.00,,,0.00,Wunderground v.1.15,2013-02-20 08:17:00,
2013-02-20 03:22:00,30.8,16.9,29.89,NNE,30,2.0,5.0,56,0.00,,,0.00,Wunderground v.1.15,2013-02-20 08:22:00,
2013-02-20 03:29:00,30.8,16.5,29.89,WNW,298,2.0,5.0,55,0.00,,,0.00,Wunderground v.1.15,2013-02-20 08:29:00,
2013-02-20 03:34:00,30.8,16.5,29.89,WNW,294,2.0,2.0,55,0.00,,,0.00,Wunderground v.1.15,2013-02-20 08:34:00,
2013-02-20 03:40:00,30.8,16.5,29.89,NNE,18,2.0,2.0,55,0.00,,,0.00,Wunderground v.1.15,2013-02-20 08:40:00,
2013-02-20 03:45:00,30.7,16.4,29.89,WNW,294,2.0,5.0,55,0.00,,,0.00,Wunderground v.1.15,2013-02-20 08:45:00,
2013-02-20 03:51:00,30.6,16.7,29.89,NNW,348,2.0,2.0,56,0.00,,,0.00,Wunderground v.1.15,2013-02-20 08:51:00,
2013-02-20 03:57:00,30.5,16.7,29.89,NNE,13,1.0,2.0,56,0.00,,,0.00,Wunderground v.1.15,2013-02-20 08:57:00,
2013-02-20 04:04:00,30.3,16.5,29.90,North,11,2.0,2.0,56,0.00,,,0.00,Wunderground v.1.15,2013-02-20 09:04:00,
2013-02-20 04:10:00,30.3,16.9,29.90,WSW,258,1.0,1.0,57,0.00,,,0.00,Wunderground v.1.15,2013-02-20 09:10:00,
2013-02-20 04:15:00,30.2,16.4,29.90,NW,311,1.0,2.0,56,0.00,,,0.00,Wunderground v.1.15,2013-02-20 09:15:00,
2013-02-20 04:21:00,30.1,16.7,29.91,WNW,300,2.0,2.0,57,0.00,,,0.00,Wunderground v.1.15,2013-02-20 09:21:00,
2013-02-20 04:26:00,30.0,16.2,29.91,NW,317,2.0,5.0,56,0.00,,,0.00,Wunderground v.1.15,2013-02-20 09:26:00,
2013-02-20 04:31:00,29.9,15.7,29.90,NNE,32,2.0,5.0,55,0.00,,,0.00,Wunderground v.1.15,2013-02-20 09:31:00,
2013-02-20 04:36:00,29.8,15.2,29.91,SW,234,2.0,5.0,54,0.00,,,0.00,Wunderground v.1.15,2013-02-20 09:36:00,
2013-02-20 04:41:00,29.8,15.6,29.91,NE,38,2.0,2.0,55,0.00,,,0.00,Wunderground v.1.15,2013-02-20 09:41:00,
2013-02-20 04:46:00,29.6,15.0,29.91,West,276,2.0,4.0,54,0.00,,,0.00,Wunderground v.1.15,2013-02-20 09:46:00,
2013-02-20 04:52:00,29.4,14.8,29.92,SW,236,2.0,2.0,54,0.00,,,0.00,Wunderground v.1.15,2013-02-20 09:52:00,
2013-02-20 04:57:00,29.3,14.7,29.92,NW,318,2.0,3.0,54,0.00,,,0.00,Wunderground v.1.15,2013-02-20 09:57:00,
2013-02-20 05:02:00,29.3,14.0,29.92,WNW,285,1.0,5.0,54,0.00,,,0.00,weatherlink.com 1.10,2013-02-20 10:02:00,
2013-02-20 05:08:00,29.3,14.3,29.92,SE,136,3.0,5.0,53,0.00,,,0.00,Wunderground v.1.15,2013-02-20 10:08:00,
2013-02-20 05:14:00,29.2,15.0,29.93,West,266,2.0,3.0,55,0.00,,,0.00,Wunderground v.1.15,2013-02-20 10:14:00,
2013-02-20 05:19:00,29.2,14.6,29.93,North,350,2.0,3.0,54,0.00,,,0.00,Wunderground v.1.15,2013-02-20 10:19:00,
2013-02-20 05:24:00,29.2,15.0,29.93,NNW,331,1.0,2.0,55,0.00,,,0.00,Wunderground v.1.15,2013-02-20 10:24:00,
2013-02-20 05:30:00,29.1,14.5,29.93,NNE,21,2.0,2.0,54,0.00,,,0.00,Wunderground v.1.15,2013-02-20 10:30:00,
2013-02-20 05:35:00,29.1,14.5,29.93,WNW,298,2.0,2.0,54,0.00,,,0.00,Wunderground v.1.15,2013-02-20 10:35:00,
2013-02-20 05:40:00,29.0,14.8,29.93,North,360,1.0,7.0,55,0.00,,,0.00,Wunderground v.1.15,2013-02-20 10:40:00,
2013-02-20 05:46:00,28.9,14.7,29.94,ENE,69,2.0,7.0,55,0.00,,,0.00,Wunderground v.1.15,2013-02-20 10:46:00,
2013-02-20 05:51:00,28.8,14.6,29.94,NNE,22,2.0,2.0,55,0.00,,,0.00,Wunderground v.1.15,2013-02-20 10:51:00,
2013-02-20 05:57:00,28.8,14.6,29.94,North,5,2.0,3.0,55,0.00,,,0.00,Wunderground v.1.15,2013-02-20 10:57:00,
2013-02-20 06:02:00,28.7,14.6,29.94,NNE,23,2.0,2.0,55,0.00,,,0.00,Wunderground v.1.15,2013-02-20 11:02:00,
2013-02-20 06:09:00,28.6,14.9,29.95,North,360,2.0,3.0,56,0.00,,,0.00,Wunderground v.1.15,2013-02-20 11:09:00,
2013-02-20 06:14:00,28.5,14.8,29.95,North,5,2.0,2.0,56,0.00,,,0.00,Wunderground v.1.15,2013-02-20 11:14:00,
2013-02-20 06:19:00,28.5,14.4,29.95,WNW,300,1.0,4.0,55,0.00,,,0.00,Wunderground v.1.15,2013-02-20 11:19:00,
2013-02-20 06:25:00,28.4,15.1,29.96,NNE,27,2.0,3.0,57,0.00,,,0.00,Wunderground v.1.15,2013-02-20 11:25:00,
2013-02-20 06:30:00,28.1,15.2,29.96,NE,42,2.0,5.0,58,0.00,,,0.00,Wunderground v.1.15,2013-02-20 11:30:00,
2013-02-20 06:35:00,27.8,14.9,29.96,NE,38,3.0,5.0,58,0.00,,,0.00,Wunderground v.1.15,2013-02-20 11:35:00,
2013-02-20 06:40:00,27.6,15.1,29.97,NE,47,3.0,3.0,59,0.00,,,0.00,Wunderground v.1.15,2013-02-20 11:40:00,
2013-02-20 06:45:00,27.5,15.4,29.97,NE,52,3.0,4.0,60,0.00,,,0.00,Wunderground v.1.15,2013-02-20 11:45:00,
2013-02-20 06:51:00,27.5,15.0,29.97,NNE,15,3.0,3.0,59,0.00,,,0.00,Wunderground v.1.15,2013-02-20 11:51:00,
2013-02-20 06:56:00,27.4,14.9,29.97,ENE,67,3.0,5.0,59,0.00,,,0.00,Wunderground v.1.15,2013-02-20 11:56:00,
2013-02-20 07:02:00,27.4,14.9,29.97,NNE,26,2.0,7.0,59,0.00,,,0.00,Wunderground v.1.15,2013-02-20 12:02:00,
2013-02-20 07:07:00,27.4,15.0,29.97,North,5,2.0,9.0,59,0.00,,,0.00,weatherlink.com 1.10,2013-02-20 12:07:00,
2013-02-20 07:14:00,27.4,14.9,29.97,NNE,30,2.0,3.0,59,0.00,,,0.00,Wunderground v.1.15,2013-02-20 12:14:00,
2013-02-20 07:19:00,27.3,14.5,29.97,East,80,2.0,5.0,58,0.00,,,0.00,Wunderground v.1.15,2013-02-20 12:19:00,
2013-02-20 07:24:00,27.3,14.5,29.98,NE,43,2.0,2.0,58,0.00,,,0.00,Wunderground v.1.15,2013-02-20 12:24:00,
2013-02-20 07:30:00,27.2,14.8,29.98,WNW,296,1.0,2.0,59,0.00,,,0.00,Wunderground v.1.15,2013-02-20 12:30:00,
2013-02-20 07:36:00,27.2,13.6,29.98,SSE,167,2.0,3.0,56,0.00,,,0.00,Wunderground v.1.15,2013-02-20 12:36:00,
2013-02-20 07:41:00,27.2,12.7,29.98,SE,128,3.0,3.0,54,0.00,,,0.00,Wunderground v.1.15,2013-02-20 12:41:00,
2013-02-20 07:47:00,27.4,13.3,29.99,WNW,288,2.0,3.0,55,0.00,,,0.00,Wunderground v.1.15,2013-02-20 12:47:00,
2013-02-20 07:54:00,27.4,13.3,29.99,NW,316,2.0,2.0,55,0.00,,,0.00,Wunderground v.1.15,2013-02-20 12:54:00,
2013-02-20 07:59:00,27.3,12.4,29.99,NW,324,3.0,7.0,53,0.00,,,0.00,Wunderground v.1.15,2013-02-20 12:59:00,
2013-02-20 08:04:00,27.2,12.7,29.98,ENE,63,3.0,3.0,54,0.00,,,0.00,Wunderground v.1.15,2013-02-20 13:04:00,
2013-02-20 08:10:00,27.1,12.6,29.99,North,5,3.0,3.0,54,0.00,,,0.00,Wunderground v.1.15,2013-02-20 13:10:00,
2013-02-20 08:15:00,27.1,13.1,29.99,ENE,72,3.0,3.0,55,0.00,,,0.00,Wunderground v.1.15,2013-02-20 13:15:00,
2013-02-20 08:20:00,27.0,13.4,29.99,North,5,2.0,4.0,56,0.00,,,0.00,Wunderground v.1.15,2013-02-20 13:20:00,
2013-02-20 08:25:00,26.9,12.9,29.99,East,86,2.0,8.0,55,0.00,,,0.00,Wunderground v.1.15,2013-02-20 13:25:00,
2013-02-20 08:30:00,27.0,13.4,29.99,West,277,3.0,3.0,56,0.00,,,0.00,Wunderground v.1.15,2013-02-20 13:30:00,
2013-02-20 08:35:00,27.1,13.5,30.00,NW,309,3.0,3.0,56,0.00,,,0.00,Wunderground v.1.15,2013-02-20 13:35:00,
2013-02-20 08:40:00,27.3,13.2,30.00,NE,42,3.0,3.0,55,0.00,,,0.00,Wunderground v.1.15,2013-02-20 13:40:00,
2013-02-20 08:46:00,27.4,13.7,30.00,WNW,290,2.0,4.0,56,0.00,,,0.00,Wunderground v.1.15,2013-02-20 13:46:00,
2013-02-20 08:51:00,27.4,13.3,30.00,WNW,295,2.0,3.0,55,0.00,,,0.00,Wunderground v.1.15,2013-02-20 13:51:00,
2013-02-20 08:56:00,27.5,13.4,30.00,North,360,2.0,4.0,55,0.00,,,0.00,Wunderground v.1.15,2013-02-20 13:56:00,
2013-02-20 09:02:00,27.8,13.3,30.00,NE,53,3.0,3.0,54,0.00,,,0.00,Wunderground v.1.15,2013-02-20 14:02:00,
2013-02-20 09:08:00,28.5,14.0,30.00,NE,51,1.0,12.0,54,0.00,,,0.00,weatherlink.com 1.10,2013-02-20 14:08:00,
2013-02-20 09:14:00,28.6,13.6,29.99,NW,311,3.0,4.0,53,0.00,,,0.00,Wunderground v.1.15,2013-02-20 14:14:00,
2013-02-20 09:19:00,28.8,13.8,30.00,WNW,293,3.0,4.0,53,0.00,,,0.00,Wunderground v.1.15,2013-02-20 14:19:00,
2013-02-20 09:24:00,29.0,13.6,30.00,WNW,298,2.0,3.0,52,0.00,,,0.00,Wunderground v.1.15,2013-02-20 14:24:00,
2013-02-20 09:29:00,29.3,13.8,30.00,South,175,2.0,3.0,52,0.00,,,0.00,Wunderground v.1.15,2013-02-20 14:29:00,
2013-02-20 09:35:00,29.6,15.0,29.99,West,272,4.0,8.0,54,0.00,,,0.00,weatherlink.com 1.10,2013-02-20 14:35:00,
2013-02-20 09:41:00,30.0,14.0,29.99,NE,46,2.0,3.0,51,0.00,,,0.00,Wunderground v.1.15,2013-02-20 14:41:00,
2013-02-20 09:46:00,30.3,15.2,30.00,SE,144,2.0,3.0,53,0.00,,,0.00,Wunderground v.1.15,2013-02-20 14:46:00,
2013-02-20 09:52:00,30.7,14.0,30.00,WNW,288,2.0,8.0,51,0.00,,,0.00,weatherlink.com 1.10,2013-02-20 14:52:00,
2013-02-20 09:57:00,30.4,14.0,30.00,NNW,340,2.0,6.0,50,0.00,,,0.00,Wunderground v.1.15,2013-02-20 14:57:00,
2013-02-20 10:04:00,30.5,14.5,30.00,WNW,294,2.0,2.0,51,0.00,,,0.00,Wunderground v.1.15,2013-02-20 15:04:00,
2013-02-20 10:10:00,30.7,14.7,30.00,NNE,24,2.0,2.0,51,0.00,,,0.00,Wunderground v.1.15,2013-02-20 15:10:00,
2013-02-20 10:15:00,31.0,15.0,30.00,ENE,67,2.0,2.0,51,0.00,,,0.00,Wunderground v.1.15,2013-02-20 15:15:00,
2013-02-20 10:21:00,31.2,15.0,30.00,NE,37,2.0,6.0,52,0.00,,,0.00,weatherlink.com 1.10,2013-02-20 15:21:00,
2013-02-20 10:26:00,31.2,15.6,30.00,NNE,28,2.0,4.0,52,0.00,,,0.00,Wunderground v.1.15,2013-02-20 15:26:00,
2013-02-20 10:31:00,31.1,14.6,30.00,North,360,2.0,4.0,50,0.00,,,0.00,Wunderground v.1.15,2013-02-20 15:31:00,
2013-02-20 10:36:00,31.0,15.0,30.01,SSE,157,4.0,5.0,51,0.00,,,0.00,weatherlink.com 1.10,2013-02-20 15:36:00,
2013-02-20 10:42:00,31.2,15.2,30.00,NE,49,3.0,3.0,51,0.00,,,0.00,Wunderground v.1.15,2013-02-20 15:42:00,
2013-02-20 10:47:00,31.6,16.0,30.01,SW,231,2.0,8.0,52,0.00,,,0.00,Wunderground v.1.15,2013-02-20 15:47:00,
2013-02-20 10:52:00,31.7,15.2,30.00,North,355,3.0,5.0,50,0.00,,,0.00,Wunderground v.1.15,2013-02-20 15:52:00,
2013-02-20 10:57:00,32.3,16.2,30.01,West,261,4.0,9.0,51,0.00,,,0.00,Wunderground v.1.15,2013-02-20 15:57:00,
2013-02-20 11:04:00,32.2,15.2,30.01,WSW,248,3.0,5.0,49,0.00,,,0.00,Wunderground v.1.15,2013-02-20 16:04:00,
2013-02-20 11:10:00,32.0,15.0,30.01,WNW,290,3.0,4.0,49,0.00,,,0.00,Wunderground v.1.15,2013-02-20 16:10:00,
2013-02-20 11:15:00,32.0,15.9,30.00,WNW,296,3.0,4.0,51,0.00,,,0.00,Wunderground v.1.15,2013-02-20 16:15:00,
2013-02-20 11:21:00,32.0,15.9,30.01,WNW,284,3.0,3.0,51,0.00,,,0.00,Wunderground v.1.15,2013-02-20 16:21:00,
2013-02-20 11:26:00,32.5,16.4,30.01,NNE,27,3.0,5.0,51,0.00,,,0.00,Wunderground v.1.15,2013-02-20 16:26:00,
2013-02-20 11:31:00,33.6,17.4,30.01,NNE,28,3.0,3.0,51,0.00,,,0.00,Wunderground v.1.15,2013-02-20 16:31:00,
2013-02-20 11:36:00,34.0,16.3,30.00,NNE,19,3.0,6.0,48,0.00,,,0.00,Wunderground v.1.15,2013-02-20 16:36:00,
2013-02-20 11:41:00,33.8,17.1,30.01,NE,36,4.0,4.0,50,0.00,,,0.00,Wunderground v.1.15,2013-02-20 16:41:00,
2013-02-20 11:46:00,34.1,17.4,30.00,WNW,286,3.0,4.0,50,0.00,,,0.00,Wunderground v.1.15,2013-02-20 16:46:00,
2013-02-20 11:52:00,34.6,17.0,30.00,NE,34,4.0,7.0,48,0.00,,,0.00,weatherlink.com 1.10,2013-02-20 16:52:00,
2013-02-20 11:57:00,34.9,17.2,30.00,WNW,290,2.0,5.0,48,0.00,,,0.00,Wunderground v.1.15,2013-02-20 16:57:00,
2013-02-20 12:04:00,35.0,16.3,30.00,NNE,15,3.0,5.0,46,0.00,,,0.00,Wunderground v.1.15,2013-02-20 17:04:00,
2013-02-20 12:10:00,34.8,16.1,30.00,WSW,242,3.0,3.0,46,0.00,,,0.00,Wunderground v.1.15,2013-02-20 17:10:00,
2013-02-20 12:15:00,34.8,17.1,30.00,NE,54,2.0,8.0,48,0.00,,,0.00,Wunderground v.1.15,2013-02-20 17:15:00,
2013-02-20 12:20:00,35.2,17.0,30.00,North,355,3.0,3.0,47,0.00,,,0.00,Wunderground v.1.15,2013-02-20 17:20:00,
2013-02-20 12:25:00,35.5,16.2,30.00,NNW,344,3.0,3.0,45,0.00,,,0.00,Wunderground v.1.15,2013-02-20 17:25:00,
2013-02-20 12:30:00,35.1,15.3,30.00,West,271,2.0,2.0,44,0.00,,,0.00,Wunderground v.1.15,2013-02-20 17:30:00,
2013-02-20 12:35:00,34.8,16.1,29.99,SSW,206,2.0,2.0,46,0.00,,,0.00,Wunderground v.1.15,2013-02-20 17:35:00,
2013-02-20 12:40:00,35.3,17.1,29.99,WNW,286,2.0,2.0,47,0.00,,,0.00,Wunderground v.1.15,2013-02-20 17:40:00,
2013-02-20 12:45:00,35.7,16.9,30.00,WNW,292,2.0,4.0,46,0.00,,,0.00,Wunderground v.1.15,2013-02-20 17:45:00,
2013-02-20 12:50:00,35.5,16.7,29.99,North,5,3.0,3.0,46,0.00,,,0.00,Wunderground v.1.15,2013-02-20 17:50:00,
2013-02-20 12:55:00,35.6,16.8,29.99,WNW,292,2.0,3.0,46,0.00,,,0.00,Wunderground v.1.15,2013-02-20 17:55:00,
2013-02-20 13:00:00,35.5,16.2,29.99,NE,47,2.0,5.0,45,0.00,,,0.00,Wunderground v.1.15,2013-02-20 18:00:00,
2013-02-20 13:06:00,36.1,17.3,30.00,WNW,302,2.0,5.0,46,0.00,,,0.00,Wunderground v.1.15,2013-02-20 18:06:00,
2013-02-20 13:12:00,36.7,16.3,29.99,NNE,22,2.0,2.0,43,0.00,,,0.00,Wunderground v.1.15,2013-02-20 18:12:00,
2013-02-20 13:17:00,36.4,15.5,29.99,ENE,72,2.0,4.0,42,0.00,,,0.00,Wunderground v.1.15,2013-02-20 18:17:00,
2013-02-20 13:22:00,36.2,16.9,30.00,NNW,331,3.0,6.0,45,0.00,,,0.00,Wunderground v.1.15,2013-02-20 18:22:00,
2013-02-20 13:27:00,35.7,15.9,30.00,ENE,59,3.0,6.0,44,0.00,,,0.00,Wunderground v.1.15,2013-02-20 18:27:00,
2013-02-20 13:32:00,35.1,15.3,30.00,NNW,330,2.0,3.0,44,0.00,,,0.00,Wunderground v.1.15,2013-02-20 18:32:00,
2013-02-20 13:37:00,35.2,16.5,29.99,WNW,284,2.0,5.0,46,0.00,,,0.00,Wunderground v.1.15,2013-02-20 18:37:00,
2013-02-20 13:44:00,35.7,15.9,30.00,SW,236,3.0,5.0,44,0.00,,,0.00,Wunderground v.1.15,2013-02-20 18:44:00,
2013-02-20 13:49:00,36.2,17.4,29.99,NE,34,3.0,5.0,46,0.00,,,0.00,Wunderground v.1.15,2013-02-20 18:49:00,
2013-02-20 13:54:00,36.5,17.1,30.00,East,80,2.0,2.0,45,0.00,,,0.00,Wunderground v.1.15,2013-02-20 18:54:00,
2013-02-20 13:59:00,36.4,16.0,30.00,NNE,26,2.0,3.0,43,0.00,,,0.00,Wunderground v.1.15,2013-02-20 18:59:00,
2013-02-20 14:04:00,36.1,15.7,30.00,WNW,290,2.0,5.0,43,0.00,,,0.00,Wunderground v.1.15,2013-02-20 19:04:00,
2013-02-20 14:10:00,35.1,15.0,30.00,NE,44,3.0,13.0,43,0.00,,,0.00,weatherlink.com 1.10,2013-02-20 19:10:00,
2013-02-20 14:15:00,35.0,15.8,30.00,West,279,3.0,8.0,45,0.00,,,0.00,Wunderground v.1.15,2013-02-20 19:15:00,
2013-02-20 14:21:00,35.0,15.3,30.00,NE,45,3.0,3.0,44,0.00,,,0.00,Wunderground v.1.15,2013-02-20 19:21:00,
2013-02-20 14:26:00,34.3,15.1,30.00,NNW,334,3.0,5.0,45,0.00,,,0.00,Wunderground v.1.15,2013-02-20 19:26:00,
2013-02-20 14:31:00,33.6,14.5,30.01,ENE,73,3.0,3.0,45,0.00,,,0.00,Wunderground v.1.15,2013-02-20 19:31:00,
2013-02-20 14:37:00,33.7,15.6,30.00,NE,43,2.0,3.0,47,0.00,,,0.00,Wunderground v.1.15,2013-02-20 19:37:00,
2013-02-20 14:42:00,34.3,15.1,30.01,NNE,28,2.0,3.0,45,0.00,,,0.00,Wunderground v.1.15,2013-02-20 19:42:00,
2013-02-20 14:47:00,34.5,15.8,30.01,West,279,3.0,3.0,46,0.00,,,0.00,Wunderground v.1.15,2013-02-20 19:47:00,
2013-02-20 14:54:00,33.6,14.0,30.01,WSW,246,3.0,14.0,44,0.00,,,0.00,Wunderground v.1.15,2013-02-20 19:54:00,
2013-02-20 14:59:00,33.2,14.6,30.01,North,350,3.0,14.0,46,0.00,,,0.00,Wunderground v.1.15,2013-02-20 19:59:00,
2013-02-20 15:04:00,33.9,16.3,30.01,North,5,3.0,9.0,48,0.00,,,0.00,Wunderground v.1.15,2013-02-20 20:04:00,
2013-02-20 15:10:00,34.3,16.0,30.02,NNE,13,3.0,9.0,47,0.00,,,0.00,weatherlink.com 1.10,2013-02-20 20:10:00,
2013-02-20 15:16:00,34.1,15.5,30.02,WNW,298,3.0,5.0,46,0.00,,,0.00,Wunderground v.1.15,2013-02-20 20:16:00,
2013-02-20 15:21:00,33.6,16.0,30.03,East,93,3.0,5.0,48,0.00,,,0.00,Wunderground v.1.15,2013-02-20 20:21:00,
2013-02-20 15:29:00,32.9,15.8,30.03,NE,38,4.0,6.0,49,0.00,,,0.00,Wunderground v.1.15,2013-02-20 20:29:00,
2013-02-20 15:35:00,33.3,16.6,30.03,NNE,30,3.0,5.0,50,0.00,,,0.00,Wunderground v.1.15,2013-02-20 20:35:00,
2013-02-20 15:41:00,33.1,16.0,30.04,NE,48,3.0,4.0,49,0.00,,,0.00,Wunderground v.1.15,2013-02-20 20:41:00,
2013-02-20 15:46:00,32.4,14.9,30.04,NNE,25,3.0,7.0,48,0.00,,,0.00,Wunderground v.1.15,2013-02-20 20:46:00,
2013-02-20 15:51:00,31.9,14.9,30.05,West,279,3.0,3.0,49,0.00,,,0.00,Wunderground v.1.15,2013-02-20 20:51:00,
2013-02-20 15:56:00,31.5,15.0,30.05,NE,40,3.0,4.0,50,0.00,,,0.00,Wunderground v.1.15,2013-02-20 20:56:00,
2013-02-20 16:02:00,31.0,14.5,30.05,NNW,348,3.0,3.0,50,0.00,,,0.00,Wunderground v.1.15,2013-02-20 21:02:00,
2013-02-20 16:09:00,30.8,15.2,30.05,ENE,71,3.0,4.0,52,0.00,,,0.00,Wunderground v.1.15,2013-02-20 21:09:00,
2013-02-20 16:14:00,30.7,14.7,30.05,NNE,16,2.0,4.0,51,0.00,,,0.00,Wunderground v.1.15,2013-02-20 21:14:00,
2013-02-20 16:19:00,30.5,14.5,30.05,NE,44,3.0,4.0,51,0.00,,,0.00,Wunderground v.1.15,2013-02-20 21:19:00,
2013-02-20 16:25:00,30.0,14.0,30.05,NW,309,3.0,4.0,51,0.00,,,0.00,Wunderground v.1.15,2013-02-20 21:25:00,
2013-02-20 16:30:00,29.7,14.2,30.05,NNE,28,3.0,3.0,52,0.00,,,0.00,Wunderground v.1.15,2013-02-20 21:30:00,
2013-02-20 16:35:00,29.5,14.0,30.06,WNW,288,3.0,5.0,52,0.00,,,0.00,Wunderground v.1.15,2013-02-20 21:35:00,
2013-02-20 16:41:00,29.3,14.7,30.06,NNE,13,3.0,5.0,54,0.00,,,0.00,Wunderground v.1.15,2013-02-20 21:41:00,
2013-02-20 16:46:00,29.2,14.6,30.06,North,350,3.0,7.0,54,0.00,,,0.00,Wunderground v.1.15,2013-02-20 21:46:00,
2013-02-20 16:52:00,29.1,14.9,30.06,ENE,65,3.0,4.0,55,0.00,,,0.00,Wunderground v.1.15,2013-02-20 21:52:00,
2013-02-20 16:57:00,29.0,14.4,30.07,NW,306,3.0,4.0,54,0.00,,,0.00,Wunderground v.1.15,2013-02-20 21:57:00,
2013-02-20 17:02:00,29.0,14.4,30.07,NNE,16,3.0,3.0,54,0.00,,,0.00,Wunderground v.1.15,2013-02-20 22:02:00,
2013-02-20 17:09:00,28.8,14.2,30.08,NNW,348,3.0,3.0,54,0.00,,,0.00,Wunderground v.1.15,2013-02-20 22:09:00,
2013-02-20 17:14:00,28.7,15.0,30.08,NNE,16,3.0,5.0,56,0.00,,,0.00,Wunderground v.1.15,2013-02-20 22:14:00,
2013-02-20 17:19:00,28.5,14.8,30.08,NW,322,3.0,5.0,56,0.00,,,0.00,Wunderground v.1.15,2013-02-20 22:19:00,
2013-02-20 17:25:00,28.4,15.1,30.08,NE,34,2.0,3.0,57,0.00,,,0.00,Wunderground v.1.15,2013-02-20 22:25:00,
2013-02-20 17:31:00,28.4,15.5,30.09,WNW,295,2.0,4.0,58,0.00,,,0.00,Wunderground v.1.15,2013-02-20 22:31:00,
2013-02-20 17:37:00,28.3,15.0,30.09,NNE,24,2.0,6.0,57,0.00,,,0.00,Wunderground v.1.15,2013-02-20 22:37:00,
2013-02-20 17:43:00,28.1,15.0,30.09,North,355,2.0,7.0,58,0.00,,,0.00,weatherlink.com 1.10,2013-02-20 22:43:00,
2013-02-20 17:48:00,27.9,15.4,30.09,NNW,338,3.0,5.0,59,0.00,,,0.00,Wunderground v.1.15,2013-02-20 22:48:00,
2013-02-20 17:54:00,27.7,15.2,30.09,NNE,24,3.0,4.0,59,0.00,,,0.00,Wunderground v.1.15,2013-02-20 22:54:00,
2013-02-20 17:59:00,27.5,14.6,30.10,NE,44,3.0,4.0,58,0.00,,,0.00,Wunderground v.1.15,2013-02-20 22:59:00,
2013-02-20 18:04:00,27.4,14.5,30.10,NNW,345,3.0,4.0,58,0.00,,,0.00,Wunderground v.1.15,2013-02-20 23:04:00,
2013-02-20 18:10:00,27.4,14.5,30.11,NNE,26,3.0,5.0,58,0.00,,,0.00,Wunderground v.1.15,2013-02-20 23:10:00,
2013-02-20 18:15:00,27.2,14.8,30.12,NNE,15,3.0,7.0,59,0.00,,,0.00,Wunderground v.1.15,2013-02-20 23:15:00,
2013-02-20 18:20:00,27.1,14.3,30.12,NNE,23,3.0,4.0,58,0.00,,,0.00,Wunderground v.1.15,2013-02-20 23:20:00,
2013-02-20 18:25:00,26.8,14.0,30.12,ENE,67,3.0,5.0,58,0.00,,,0.00,Wunderground v.1.15,2013-02-20 23:25:00,
2013-02-20 18:31:00,26.3,13.5,30.12,NNE,17,3.0,4.0,58,0.00,,,0.00,Wunderground v.1.15,2013-02-20 23:31:00,
2013-02-20 18:36:00,26.3,13.5,30.13,NE,46,3.0,6.0,58,0.00,,,0.00,Wunderground v.1.15,2013-02-20 23:36:00,
2013-02-20 18:42:00,26.2,13.0,30.13,NE,54,6.0,9.0,57,0.00,,,0.00,weatherlink.com 1.10,2013-02-20 23:42:00,
2013-02-20 18:47:00,26.1,13.3,30.14,WNW,292,3.0,5.0,58,0.00,,,0.00,Wunderground v.1.15,2013-02-20 23:47:00,
2013-02-20 18:54:00,25.9,12.7,30.13,NNE,26,3.0,6.0,57,0.00,,,0.00,Wunderground v.1.15,2013-02-20 23:54:00,
2013-02-20 18:59:00,25.8,13.0,30.14,NE,38,3.0,6.0,58,0.00,,,0.00,Wunderground v.1.15,2013-02-20 23:59:00,
2013-02-20 19:04:00,25.6,12.9,30.14,NE,42,3.0,4.0,58,0.00,,,0.00,Wunderground v.1.15,2013-02-21 00:04:00,
2013-02-20 19:09:00,25.4,12.7,30.14,NNE,30,3.0,6.0,58,0.00,,,0.00,Wunderground v.1.15,2013-02-21 00:09:00,
2013-02-20 19:15:00,25.2,12.0,30.14,NE,51,6.0,8.0,58,0.00,,,0.00,weatherlink.com 1.10,2013-02-21 00:15:00,
2013-02-20 19:20:00,25.0,11.9,30.14,NNE,24,3.0,4.0,57,0.00,,,0.00,Wunderground v.1.15,2013-02-21 00:20:00,
2013-02-20 19:26:00,24.7,11.6,30.13,NNE,30,4.0,5.0,57,0.00,,,0.00,Wunderground v.1.15,2013-02-21 00:26:00,
2013-02-20 19:31:00,24.6,11.5,30.13,NNE,33,3.0,5.0,57,0.00,,,0.00,Wunderground v.1.15,2013-02-21 00:31:00,
2013-02-20 19:36:00,24.4,11.3,30.13,ENE,78,3.0,5.0,57,0.00,,,0.00,Wunderground v.1.15,2013-02-21 00:36:00,
2013-02-20 19:41:00,24.3,11.2,30.13,ENE,76,2.0,3.0,57,0.00,,,0.00,Wunderground v.1.15,2013-02-21 00:41:00,
2013-02-20 19:46:00,24.2,11.1,30.13,West,281,2.0,3.0,57,0.00,,,0.00,Wunderground v.1.15,2013-02-21 00:46:00,
2013-02-20 19:51:00,24.1,10.6,30.14,SSE,154,2.0,2.0,56,0.00,,,0.00,Wunderground v.1.15,2013-02-21 00:51:00,
2013-02-20 19:57:00,24.1,11.0,30.15,NNW,333,2.0,3.0,57,0.00,,,0.00,Wunderground v.1.15,2013-02-21 00:57:00,
2013-02-20 20:04:00,24.0,11.0,30.15,NE,44,1.0,4.0,57,0.00,,,0.00,Wunderground v.1.15,2013-02-21 01:04:00,
2013-02-20 20:10:00,23.8,10.8,30.15,NE,37,2.0,2.0,57,0.00,,,0.00,Wunderground v.1.15,2013-02-21 01:10:00,
2013-02-20 20:15:00,23.7,10.7,30.14,SW,234,1.0,2.0,57,0.00,,,0.00,Wunderground v.1.15,2013-02-21 01:15:00,
2013-02-20 20:21:00,23.6,10.2,30.15,ESE,104,2.0,2.0,56,0.00,,,0.00,Wunderground v.1.15,2013-02-21 01:21:00,
2013-02-20 20:26:00,23.6,10.6,30.15,South,175,2.0,2.0,57,0.00,,,0.00,Wunderground v.1.15,2013-02-21 01:26:00,
2013-02-20 20:31:00,23.6,10.6,30.16,SSE,166,2.0,5.0,57,0.00,,,0.00,Wunderground v.1.15,2013-02-21 01:31:00,
2013-02-20 20:36:00,23.6,10.2,30.17,SSE,158,3.0,5.0,56,0.00,,,0.00,Wunderground v.1.15,2013-02-21 01:36:00,
2013-02-20 20:42:00,23.7,10.3,30.17,NE,52,2.0,3.0,56,0.00,,,0.00,Wunderground v.1.15,2013-02-21 01:42:00,
2013-02-20 20:49:00,23.7,10.3,30.17,SW,233,2.0,3.0,56,0.00,,,0.00,Wunderground v.1.15,2013-02-21 01:49:00,
2013-02-20 20:54:00,23.7,10.7,30.17,ENE,60,2.0,4.0,57,0.00,,,0.00,Wunderground v.1.15,2013-02-21 01:54:00,
2013-02-20 20:59:00,23.6,10.6,30.17,WNW,288,2.0,6.0,57,0.00,,,0.00,Wunderground v.1.15,2013-02-21 01:59:00,
2013-02-20 21:05:00,23.6,10.6,30.17,NW,308,1.0,2.0,57,0.00,,,0.00,Wunderground v.1.15,2013-02-21 02:05:00,
2013-02-20 21:10:00,23.5,10.5,30.17,North,5,1.0,5.0,57,0.00,,,0.00,Wunderground v.1.15,2013-02-21 02:10:00,
2013-02-20 21:15:00,23.4,10.0,30.17,NNE,16,0.0,8.0,58,0.00,,,0.00,weatherlink.com 1.10,2013-02-21 02:15:00,
2013-02-20 21:21:00,23.4,10.8,30.17,NNE,16,2.0,4.0,58,0.00,,,0.00,Wunderground v.1.15,2013-02-21 02:21:00,
2013-02-20 21:27:00,23.4,10.8,30.18,North,351,2.0,5.0,58,0.00,,,0.00,Wunderground v.1.15,2013-02-21 02:27:00,
2013-02-20 21:34:00,23.3,11.1,30.17,NNE,19,2.0,5.0,59,0.00,,,0.00,Wunderground v.1.15,2013-02-21 02:34:00,
2013-02-20 21:39:00,23.3,10.7,30.17,ENE,72,2.0,5.0,58,0.00,,,0.00,Wunderground v.1.15,2013-02-21 02:39:00,
2013-02-20 21:44:00,23.1,10.5,30.17,NE,36,3.0,4.0,58,0.00,,,0.00,Wunderground v.1.15,2013-02-21 02:44:00,
2013-02-20 21:49:00,23.0,10.4,30.17,NNW,335,2.0,4.0,58,0.00,,,0.00,Wunderground v.1.15,2013-02-21 02:49:00,
2013-02-20 21:54:00,22.9,10.3,30.17,SW,225,2.0,2.0,58,0.00,,,0.00,Wunderground v.1.15,2013-02-21 02:54:00,
2013-02-20 22:00:00,22.7,11.0,30.18,WSW,250,0.0,5.0,60,0.00,,,0.00,weatherlink.com 1.10,2013-02-21 03:00:00,
2013-02-20 22:05:00,22.7,10.5,30.18,SE,126,1.0,4.0,59,0.00,,,0.00,Wunderground v.1.15,2013-02-21 03:05:00,
2013-02-20 22:10:00,22.7,10.9,30.18,South,188,1.0,1.0,60,0.00,,,0.00,Wunderground v.1.15,2013-02-21 03:10:00,
2013-02-20 22:15:00,22.8,10.6,30.18,East,86,2.0,2.0,59,0.00,,,0.00,Wunderground v.1.15,2013-02-21 03:15:00,
2013-02-20 22:21:00,22.8,10.6,30.18,NW,314,1.0,1.0,59,0.00,,,0.00,Wunderground v.1.15,2013-02-21 03:21:00,
2013-02-20 22:26:00,22.8,10.6,30.18,South,182,1.0,2.0,59,0.00,,,0.00,Wunderground v.1.15,2013-02-21 03:26:00,
2013-02-20 22:32:00,22.9,10.7,30.18,NNE,20,1.0,1.0,59,0.00,,,0.00,Wunderground v.1.15,2013-02-21 03:32:00,
2013-02-20 22:39:00,22.9,11.1,30.18,West,261,2.0,6.0,60,0.00,,,0.00,Wunderground v.1.15,2013-02-21 03:39:00,
2013-02-20 22:44:00,22.9,11.1,30.18,NNE,27,2.0,4.0,60,0.00,,,0.00,Wunderground v.1.15,2013-02-21 03:44:00,
2013-02-20 22:50:00,23.0,10.8,30.18,NW,319,2.0,2.0,59,0.00,,,0.00,Wunderground v.1.15,2013-02-21 03:50:00,
2013-02-20 22:55:00,23.0,10.8,30.17,NE,44,2.0,4.0,59,0.00,,,0.00,Wunderground v.1.15,2013-02-21 03:55:00,
2013-02-20 23:00:00,22.9,10.3,30.17,WNW,294,3.0,3.0,58,0.00,,,0.00,Wunderground v.1.15,2013-02-21 04:00:00,
2013-02-20 23:06:00,22.8,10.2,30.17,NE,52,2.0,3.0,58,0.00,,,0.00,Wunderground v.1.15,2013-02-21 04:06:00,
2013-02-20 23:11:00,22.6,10.4,30.17,NNE,25,2.0,5.0,59,0.00,,,0.00,Wunderground v.1.15,2013-02-21 04:11:00,
2013-02-20 23:17:00,22.5,10.0,30.16,NNE,12,2.0,8.0,59,0.00,,,0.00,weatherlink.com 1.10,2013-02-21 04:17:00,
2013-02-20 23:22:00,22.4,9.8,30.17,NNE,24,3.0,5.0,58,0.00,,,0.00,Wunderground v.1.15,2013-02-21 04:22:00,
2013-02-20 23:27:00,22.3,10.1,30.17,NNE,13,2.0,5.0,59,0.00,,,0.00,Wunderground v.1.15,2013-02-21 04:27:00,
2013-02-20 23:32:00,22.2,10.0,30.17,NW,319,2.0,3.0,59,0.00,,,0.00,Wunderground v.1.15,2013-02-21 04:32:00,
2013-02-20 23:39:00,22.0,9.8,30.16,NE,38,1.0,3.0,59,0.00,,,0.00,Wunderground v.1.15,2013-02-21 04:39:00,
2013-02-20 23:44:00,22.0,9.8,30.17,North,360,1.0,2.0,59,0.00,,,0.00,Wunderground v.1.15,2013-02-21 04:44:00,
2013-02-20 23:50:00,21.9,9.7,30.17,North,350,2.0,2.0,59,0.00,,,0.00,Wunderground v.1.15,2013-02-21 04:50:00,
2013-02-20 23:55:00,21.9,9.4,30.16,NE,39,2.0,4.0,58,0.00,,,0.00,Wunderground v.1.15,2013-02-21 04:55:00,